sat.trackr.live / text

‹ back to catalog

STARLINK-11164 [DTC]

NORAD 60120 · 2024-118H

PAYLOAD ACTIVE UNKNOWN

§ Identity

Operator
Country
US
Launch date
2024-06-24
Launch site
AFWTR
Launch vehicle
Mass (kg)
RCS (m²)

Purposes: comms

External: N2YO · Heavens-Above · Gunter

§ Orbital elements

Epoch: 2026-05-25T03:38:16.747872Z

Period
91.74 min
Inclination
53.1595°
Eccentricity
0.0001237
Mean motion
15.69717380 rev/d
Perigee alt
358.9 km
Apogee alt
360.5 km
Semi-major
6,737.8 km
B*
1.3811e-5
RAAN
204.2481°
Arg perigee
69.3398°
Mean anomaly
290.7753°
Rev number
11,000

§ Raw data

STARLINK-11164 [DTC]1 60120U 24118H   26145.15158273  .00001085  00000+0  13811-4 0  99962 60120  53.1595 204.2481 0001237  69.3398 290.7753 15.69717380110003

JSON: /api/v1/satellites/60120 · /tle

For live sub-satellite position, see the globe view (requires WebGL).

§ Visibility from observer

Set your observer location to see the next 7 days of passes ≥ 10°. The values pass through the URL so the page stays shareable.

No JS? Fill the form by hand. The geolocation button needs JavaScript.